DW5560 Weather Reports


time (UTC)temp
C
wind
direction
speed
KPH
gust
KPH
rain 1hr
cm
rain 24hr
cm
rain mn
cm
humidity
%
barometer
mb
20260906105027 32 25 9.7 25.7 0.00 0.00 0.00 27 1017.4
20260906104021 31 40 12.9 27.4 0.00 0.00 0.00 27 1017.4
20260906103054 31 346 11.3 29.0 0.00 0.00 0.00 26 1017.4
20260906102048 31 45 14.5 25.7 0.00 0.00 0.00 27 1017.5
20260906101026 31 319 9.7 22.5 0.00 0.00 0.00 28 1017.5
20260906100019 31 360 11.3 22.5 0.00 0.00 0.00 28 1017.7
20260906095033 31 360 12.9 32.2 0.00 0.00 0.00 27 1017.7
20260906094027 31 344 11.3 24.1 0.00 0.00 0.00 28 1017.7
20260906093024 31 327 9.7 22.5 0.00 0.00 0.00 27 1017.8
20260906092037 31 319 14.5 22.5 0.00 0.00 0.00 27 1017.7
20260906091032 31 360 11.3 27.4 0.00 0.00 0.00 28 1017.9
20260906090027 30 347 11.3 27.4 0.00 0.00 0.00 28 1017.8
20260906085026 30 323 16.1 27.4 0.00 0.00 0.00 29 1017.8
20260906084040 30 10 14.5 27.4 0.00 0.00 0.00 28 1017.9
20260906083034 30 326 16.1 22.5 0.00 0.00 0.00 25 1017.9
20260906082018 30 338 14.5 27.4 0.00 0.00 0.00 24 1017.7
20260906081037 30 348 14.5 22.5 0.00 0.00 0.00 23 1017.7
20260906080050 30 342 6.4 24.1 0.00 0.00 0.00 25 1017.8
20260906075024 30 34 9.7 24.1 0.00 0.00 0.00 25 1017.9
20260906074022 30 360 14.5 24.1 0.00 0.00 0.00 24 1017.7
20260906073037 30 311 14.5 24.1 0.00 0.00 0.00 25 1017.6
20260906072030 30 342 11.3 25.7 0.00 0.00 0.00 25 1017.6
20260906071044 29 327 17.7 29.0 0.00 0.00 0.00 25 1017.5
20260906070057 29 325 12.9 27.4 0.00 0.00 0.00 27 1017.5
20260906065034 28 350 8.0 17.7 0.00 0.00 0.00 33 1017.5
20260906064029 27 327 8.0 19.3 0.00 0.00 0.00 36 1017.6
20260906063022 27 24 8.0 19.3 0.00 0.00 0.00 36 1017.5
20260906062057 27 315 9.7 17.7 0.00 0.00 0.00 36 1017.3
20260906061035 27 325 12.9 22.5 0.00 0.00 0.00 35 1017.3
20260906060029 26 343 11.3 19.3 0.00 0.00 0.00 37 1017.3
20260906055024 26 360 6.4 20.9 0.00 0.00 0.00 37 1017.2
20260906054043 26 360 11.3 22.5 0.00 0.00 0.00 36 1017.1
20260906053037 26 9 11.3 22.5 0.00 0.00 0.00 38 1016.9
20260906052032 26 9 11.3 17.7 0.00 0.00 0.00 37 1017.0
20260906051027 26 11 8.0 22.5 0.00 0.00 0.00 35 1016.9
20260906050025 26 345 8.0 17.7 0.00 0.00 0.00 36 1016.7
20260906045019 25 21 8.0 17.7 0.00 0.00 0.00 37 1016.6
20260906044033 25 338 8.0 19.3 0.00 0.00 0.00 35 1016.6
20260906043033 25 344 8.0 12.9 0.00 0.00 0.00 35 1016.5
20260906042027 25 313 8.0 14.5 0.00 0.00 0.00 36 1016.4
20260906041022 24 355 8.0 16.1 0.00 0.00 0.00 38 1016.4
20260906040034 24 9 6.4 14.5 0.00 0.00 0.00 37 1016.4
20260906035031 24 344 8.0 14.5 0.00 0.00 0.00 37 1016.3
20260906034026 24 43 8.0 12.9 0.00 0.00 0.00 37 1016.3
20260906033044 24 344 6.4 12.9 0.00 0.00 0.00 39 1016.3
20260906032037 23 5 6.4 12.9 0.00 0.00 0.00 40 1016.3
20260906031057 24 5 8.0 17.7 0.00 0.00 0.00 41 1016.3
20260906030029 23 360 8.0 14.5 0.00 0.00 0.00 43 1016.3
20260906025023 23 355 6.4 12.9 0.00 0.00 0.00 45 1016.2
20260906024018 23 15 4.8 9.7 0.00 0.00 0.00 46 1016.2
20260906023017 24 360 6.4 12.9 0.00 0.00 0.00 45 1016.1
20260906022031 23 5 6.4 14.5 0.00 0.00 0.00 47 1016.2
20260906021027 24 14 9.7 14.5 0.00 0.00 0.00 46 1016.2
20260906020022 24 360 8.0 16.1 0.00 0.00 0.00 44 1016.3
20260906015041 23 325 9.7 19.3 0.00 0.00 0.00 44 1016.3
20260906014036 23 360 9.7 14.5 0.00 0.00 0.00 46 1016.4
20260906013030 23 336 6.4 12.9 0.00 0.00 0.00 46 1016.4
20260906012045 23 347 6.4 12.9 0.00 0.00 0.00 49 1016.3
20260906011024 23 355 4.8 12.9 0.00 0.00 0.00 46 1016.4
20260906010017 23 26 6.4 9.7 0.00 0.00 0.00 45 1016.3
20260906005033 23 344 4.8 9.7 0.00 0.00 0.00 45 1016.5
20260906004027 23 5 6.4 9.7 0.00 0.00 0.00 46 1016.5
20260906003022 23 355 4.8 8.0 0.00 0.00 0.00 48 1016.4
20260906002039 23 5 6.4 12.9 0.00 0.00 0.00 46 1016.4
20260906001033 23 5 6.4 14.5 0.00 0.00 0.00 45 1016.4
20260906000029 23 9 4.8 9.7 0.00 0.00 0.00 44 1016.5
20260905235029 23 15 6.4 12.9 0.00 0.00 0.00 43 1016.4
20260905234046 24 20 6.4 12.9 0.00 0.00 0.00 39 1016.4
20260905233021 24 29 4.8 12.9 0.00 0.00 0.00 40 1016.6
20260905232033 24 9 6.4 16.1 0.00 0.00 0.00 41 1016.8
20260905231033 24 333 4.8 14.5 0.00 0.00 0.00 41 1016.8
20260905230030 24 12 6.4 14.5 0.00 0.00 0.00 41 1016.7
20260905225025 23 17 3.2 12.9 0.00 0.00 0.00 42 1016.7
20260905224020 23 5 6.4 9.7 0.00 0.00 0.00 42 1016.6
20260905223020 23 350 6.4 11.3 0.00 0.00 0.00 42 1016.9
20260905222056 24 37 4.8 14.5 0.00 0.00 0.00 43 1017.0
20260905221028 23 14 6.4 9.7 0.00 0.00 0.00 44 1016.9
20260905220022 24 360 6.4 9.7 0.00 0.00 0.00 43 1016.8
20260905215021 24 341 6.4 9.7 0.00 0.00 0.00 42 1016.8
20260905214055 23 23 4.8 11.3 0.00 0.00 0.00 47 1017.0
20260905213030 24 360 6.4 17.7 0.00 0.00 0.00 46 1016.9
20260905212026 23 14 9.7 16.1 0.00 0.00 0.00 49 1017.0
20260905211025 23 28 8.0 16.1 0.00 0.00 0.00 56 1017.0
20260905210041 23 14 9.7 16.1 0.00 0.00 0.00 57 1017.0
20260905205035 23 26 6.4 14.5 0.00 0.00 0.00 56 1017.2
20260905204031 23 28 6.4 11.3 0.00 0.00 0.00 53 1017.3
20260905203030 24 37 4.8 16.1 0.00 0.00 0.00 50 1017.2
20260905202046 24 44 9.7 16.1 0.00 0.00 0.00 47 1017.1
20260905201022 25 342 6.4 12.9 0.00 0.00 0.00 43 1017.2
20260905200022 25 13 4.8 9.7 0.00 0.00 0.00 38 1017.3
20260905195034 25 339 4.8 17.7 0.00 0.00 0.00 36 1017.4
20260905194049 26 341 4.8 19.3 0.00 0.00 0.00 35 1017.4
20260905193022 26 316 11.3 17.7 0.00 0.00 0.00 36 1017.4
20260905192022 26 298 11.3 20.9 0.00 0.00 0.00 38 1017.5
20260905191035 26 327 14.5 24.1 0.00 0.00 0.00 39 1017.4
20260905190030 25 343 14.5 20.9 0.00 0.00 0.00 40 1017.5
20260905185026 25 339 9.7 19.3 0.00 0.00 0.00 41 1017.5
20260905184026 25 350 9.7 19.3 0.00 0.00 0.00 40 1017.4
20260905183020 25 50 11.3 20.9 0.00 0.00 0.00 42 1017.4
20260905182035 25 339 12.9 22.5 0.00 0.00 0.00 42 1017.3
20260905181034 25 342 11.3 19.3 0.00 0.00 0.00 44 1017.3
20260905180030 25 341 11.3 20.9 0.00 0.00 0.00 45 1017.2
20260905175023 26 313 14.5 24.1 0.00 0.00 0.00 43 1017.1
20260905174037 26 338 14.5 24.1 0.00 0.00 0.00 42 1017.1
20260905173056 26 50 17.7 27.4 0.00 0.00 0.00 43 1016.9
20260905172027 26 329 16.1 25.7 0.00 0.00 0.00 42 1016.8
20260905171023 26 349 12.9 24.1 0.00 0.00 0.00 43 1016.8
20260905170056 26 304 12.9 27.4 0.00 0.00 0.00 43 1016.7
20260905165031 26 323 12.9 33.8 0.00 0.00 0.00 42 1016.5
20260905164043 26 301 16.1 32.2 0.00 0.00 0.00 42 1016.4
20260905163036 26 340 19.3 33.8 0.00 0.00 0.00 41 1016.3
20260905162027 26 338 19.3 29.0 0.00 0.00 0.00 40 1016.4
20260905161021 27 19 16.1 27.4 0.00 0.00 0.00 39 1016.4
20260905160058 27 344 14.5 27.4 0.00 0.00 0.00 38 1016.4
20260905155031 27 9 14.5 29.0 0.00 0.00 0.00 38 1016.3
20260905154024 27 350 16.1 27.4 0.00 0.00 0.00 38 1016.2
20260905153019 27 9 12.9 25.7 0.00 0.00 0.00 39 1016.3
20260905152038 27 9 14.5 27.4 0.00 0.00 0.00 40 1016.2
20260905151033 27 56 14.5 27.4 0.00 0.00 0.00 40 1016.2
20260905150023 28 342 16.1 35.4 0.00 0.00 0.00 40 1016.1
20260905145058 28 322 17.7 25.7 0.00 0.00 0.00 41 1016.0
20260905144034 28 343 16.1 41.8 0.00 0.00 0.00 40 1015.8
20260905143049 28 351 16.1 27.4 0.00 0.00 0.00 41 1015.8
20260905142021 28 313 17.7 27.4 0.00 0.00 0.00 41 1015.8
20260905141034 28 61 9.7 33.8 0.00 0.00 0.00 40 1015.5
20260905140033 28 342 17.7 33.8 0.00 0.00 0.00 40 1015.5
20260905135027 29 335 17.7 30.6 0.00 0.00 0.00 39 1015.4
20260905134041 29 30 9.7 29.0 0.00 0.00 0.00 41 1015.5
20260905133034 28 9 20.9 35.4 0.00 0.00 0.00 41 1015.4
20260905132032 29 348 12.9 32.2 0.00 0.00 0.00 41 1015.4
20260905131028 29 50 17.7 33.8 0.00 0.00 0.00 41 1015.3
20260905130038 29 323 16.1 30.6 0.00 0.00 0.00 41 1015.3
20260905125036 29 329 16.1 35.4 0.00 0.00 0.00 40 1015.2
20260905124028 29 325 12.9 29.0 0.00 0.00 0.00 40 1015.2
20260905123021 29 24 16.1 27.4 0.00 0.00 0.00 41 1015.3
20260905122034 29 317 17.7 38.6 0.00 0.00 0.00 42 1015.1
20260905121033 29 331 20.9 32.2 0.00 0.00 0.00 41 1015.4
20260905120026 30 5 12.9 41.8 0.00 0.00 0.00 41 1015.4
20260905115022 29 12 19.3 35.4 0.00 0.00 0.00 43 1015.4
20260905114037 29 355 16.1 35.4 0.00 0.00 0.00 43 1015.5
20260905113036 28 329 22.5 49.9 0.00 0.00 0.00 43 1015.4
20260905112027 29 280 16.1 37.0 0.00 0.00 0.00 42 1015.4
20260905111019 29 348 20.9 45.1 0.00 0.00 0.00 43 1015.2